[[{"header":{"parameterUnit":"m.s-1","parameterCategory":1,"la1":30.2991,"la2":30.254,"lo1":-89.0895,"lo2":-89.0444,"dy":0.0017,"dx":0.0017,"nx":28,"ny":28,"refTime":"2024-08-24T21:00:00:Z","depth":0,"parameterNumber":2,"parameterNumberName":"U-component_of_WINDS"},"data":[0,0,0,0,0,0,0,0,0,0,0,0,0,0,0,0,0,0,0,0,0,0,0,0,0,0,0,0,0,0,0,0,0,0,0,0,0,0,0,0,0,0,0,0,0,0,0,0,0,0,0,0,0,0,0,0,0,0,-1.4197,-1.4197,0,-1.4237,-1.4238,-1.4238,-1.4263,-1.4263,-1.4263,-1.4263,-1.4306,-1.4307,-1.4308,0,0,0,0,0,0,0,0,0,0,0,0,0,-1.4143,-1.4144,-1.4197,-1.4197,-1.4198,-1.4237,-1.4238,-1.4238,-1.4263,-1.4263,-1.4263,-1.4264,-1.4306,-1.4307,-1.4308,0,0,0,0,0,0,0,0,0,0,0,0,0,-1.4173,-1.4144,-1.4197,-1.4215,-1.4217,-1.4237,-1.4238,-1.4238,-1.4263,-1.4263,-1.4263,-1.4264,-1.4305,-1.4307,-1.4308,-1.4314,0,0,-1.4313,-1.4314,0,0,0,0,0,0,0,0,-1.4171,-1.4175,-1.4212,-1.4214,-1.4216,-1.4245,-1.4234,-1.4264,-1.4263,-1.4246,-1.4264,-1.4264,-1.4286,-1.4289,-1.4296,-1.4316,-1.4317,-1.4313,-1.4314,-1.4315,-1.4315,0,0,0,0,0,0,0,-1.4169,-1.4173,-1.4213,-1.4212,-1.4215,-1.4222,-1.4226,-1.424,-1.4264,-1.4247,-1.4249,-1.4253,-1.4287,-1.4294,-1.4297,-1.4318,-1.4313,-1.4314,-1.4315,-1.4316,-1.4345,-1.4345,0,0,0,0,0,0,-1.4164,-1.4171,-1.4211,-1.4214,-1.4194,-1.4222,-1.4227,-1.4236,-1.4264,-1.4268,-1.4253,-1.4254,-1.4292,-1.4295,-1.4299,-1.4308,-1.4315,-1.4316,-1.4317,-1.4345,-1.4345,-1.4345,0,0,0,0,0,0,-1.4163,-1.4167,-1.421,-1.4193,-1.4199,-1.4223,-1.4232,-1.4236,-1.4244,-1.4269,-1.4273,-1.4256,-1.4292,-1.4297,-1.431,-1.4309,-1.4317,-1.4318,-1.4346,-1.4345,-1.4345,-1.4325,0,0,0,0,0,0,-1.4161,-1.4167,-1.4168,-1.4193,-1.42,-1.4219,-1.4232,-1.4237,-1.4246,-1.4248,-1.4273,-1.4277,-1.4293,-1.4308,-1.4311,-1.4312,-1.4319,-1.4346,-1.4346,-1.4345,-1.4325,-1.4324,-1.4322,0,0,0,0,0,-1.4159,-1.4161,-1.4168,-1.4173,-1.4203,-1.4219,-1.4223,-1.4241,-1.4246,-1.4248,-1.4265,-1.4276,-1.4309,-1.4309,-1.4313,-1.4314,-1.4346,-1.4346,-1.4345,-1.4326,-1.4324,-1.4322,0,0,0,0,0,0,-1.4136,-1.4164,-1.4173,-1.4183,-1.4198,-1.4224,-1.4227,-1.4238,-1.4253,-1.4254,-1.4276,-1.4281,-1.4292,-1.4305,-1.4304,-1.4321,-1.4329,-1.4329,-1.4313,-1.4311,-1.4309,-1.4306,-1.432,0,0,0,0,0,-1.4132,-1.4142,-1.4167,-1.4174,-1.4181,-1.4203,-1.4211,-1.4223,-1.424,-1.4247,-1.4264,-1.4281,-1.4295,-1.4304,-1.4318,-1.4328,-1.4334,-1.433,-1.4329,-1.4327,-1.4328,-1.4335,-1.4334,-1.4344,-1.4344,-1.4344,0,0,-1.4123,-1.4141,-1.4146,-1.4169,-1.4183,-1.4194,-1.4208,-1.4219,-1.4228,-1.4249,-1.4262,-1.4275,-1.4296,-1.4307,-1.4313,-1.4318,-1.4326,-1.4327,-1.4326,-1.4327,-1.4334,-1.4333,-1.4332,-1.4344,-1.4344,-1.4344,0,0,-1.4114,-1.4128,-1.4135,-1.4149,-1.4169,-1.4184,-1.4185,-1.4209,-1.4219,-1.4233,-1.4249,-1.426,-1.4283,-1.4297,-1.4308,-1.4305,-1.4317,-1.4309,-1.4301,-1.4308,-1.4307,-1.4306,-1.4306,-1.4305,-1.431,-1.4309,-1.4309,0,-1.4102,-1.4119,-1.4138,-1.4148,-1.4158,-1.4178,-1.4186,-1.4198,-1.4222,-1.4229,-1.4234,-1.4264,-1.4279,-1.4295,-1.4294,-1.4302,-1.4305,-1.4306,-1.4305,-1.4305,-1.4305,-1.4305,-1.4304,-1.4308,-1.4309,-1.4309,-1.4309,0,-1.4103,-1.4114,-1.4118,-1.4141,-1.4151,-1.416,-1.4181,-1.419,-1.4202,-1.4216,-1.4231,-1.4249,-1.4268,-1.4273,-1.4284,-1.429,-1.4293,-1.4301,-1.4309,-1.4302,-1.4303,-1.4303,-1.4307,-1.4307,-1.4308,-1.4308,0,0,-1.4079,-1.4113,-1.4114,-1.4125,-1.4149,-1.4159,-1.417,-1.4188,-1.4195,-1.4211,-1.4221,-1.4241,-1.425,-1.4261,-1.4275,-1.428,-1.4278,-1.4288,-1.4289,-1.4286,-1.4287,-1.4281,-1.428,-1.4286,-1.4286,-1.4286,-1.4286,0,-1.4074,-1.4093,-1.4111,-1.4124,-1.4136,-1.4155,-1.4164,-1.4181,-1.4194,-1.4207,-1.4223,-1.4237,-1.4246,-1.4253,-1.426,-1.4277,-1.4279,-1.4277,-1.4296,-1.4297,-1.429,-1.428,-1.4273,-1.4272,-1.4286,-1.4286,-1.4286,0,-1.407,-1.4085,-1.41,-1.4124,-1.4129,-1.4137,-1.4156,-1.4168,-1.4187,-1.4197,-1.421,-1.4225,-1.4238,-1.4245,-1.4263,-1.4262,-1.4271,-1.4281,-1.4281,-1.4284,-1.4291,-1.4283,-1.4272,-1.4271,-1.4286,-1.4286,-1.4286,0,-1.4052,-1.4076,-1.4088,-1.4097,-1.4125,-1.4131,-1.4143,-1.4163,-1.4173,-1.4189,-1.4196,-1.4214,-1.4224,-1.4239,-1.4258,-1.4261,-1.4275,-1.4283,-1.4284,-1.4284,-1.4286,-1.4285,-1.4276,-1.4291,-1.4291,-1.4291,-1.4291,0,-1.4044,-1.4052,-1.4081,-1.4088,-1.4098,-1.4119,-1.4128,-1.4142,-1.416,-1.4171,-1.4189,-1.4199,-1.4224,-1.4237,-1.4252,-1.4266,-1.427,-1.4279,-1.4283,-1.4278,-1.4276,-1.4284,-1.4284,-1.4291,-1.4291,-1.4291,-1.4291,0,-1.4025,-1.4044,-1.4059,-1.4085,-1.4092,-1.4098,-1.4121,-1.4129,-1.4144,-1.4158,-1.4162,-1.4187,-1.4203,-1.4224,-1.4248,-1.4258,-1.427,-1.4276,-1.4263,-1.4266,-1.4266,-1.4265,-1.4261,-1.4261,-1.4276,-1.4276,-1.4275,0,-1.4019,-1.4025,-1.4052,-1.4061,-1.4073,-1.4086,-1.4097,-1.4118,-1.4128,-1.4152,-1.4157,-1.4176,-1.4191,-1.4217,-1.4237,-1.4256,-1.4263,-1.426,-1.4265,-1.426,-1.4263,-1.4262,-1.4264,-1.4258,-1.4258,-1.4258,-1.4257,0,-1.4006,-1.4015,-1.403,-1.4048,-1.406,-1.4075,-1.4091,-1.4097,-1.4122,-1.4133,-1.415,-1.4162,-1.4187,-1.4205,-1.4226,-1.424,-1.4253,-1.4255,-1.4257,-1.4251,-1.4244,-1.4248,-1.426,-1.4255,-1.4256,-1.4256,-1.4256,-1.4256,-1.3993,-1.4,-1.4021,-1.4036,-1.4051,-1.4066,-1.4075,-1.4092,-1.4106,-1.4127,-1.4139,-1.4156,-1.4177,-1.4207,-1.422,-1.4235,-1.4239,-1.4241,-1.4241,-1.4242,-1.424,-1.4241,-1.4238,-1.4239,-1.4239,-1.4239,-1.4239,0,-1.3982,-1.3996,-1.401,-1.4032,-1.4045,-1.4056,-1.4075,-1.4085,-1.4099,-1.4117,-1.4133,-1.4153,-1.4171,-1.4193,-1.4213,-1.422,-1.4227,-1.4224,-1.4224,-1.4227,-1.4234,-1.4232,-1.4219,-1.4219,-1.4219,-1.4219,-1.4219,-1.4219,-1.3977,-1.399,-1.4002,-1.4023,-1.4037,-1.4054,-1.4063,-1.4078,-1.4092,-1.4114,-1.4129,-1.4143,-1.4163,-1.4185,-1.4202,-1.4208,-1.4215,-1.4211,-1.4219,-1.4225,-1.4227,-1.4228,-1.4226,-1.4212,-1.4212,-1.421,-1.421,-1.421]},{"header":{"parameterUnit":"m.s-1","parameterCategory":1,"la1":30.2991,"la2":30.254,"lo1":-89.0895,"lo2":-89.0444,"dy":0.0017,"dx":0.0017,"nx":28,"ny":28,"refTime":"2024-08-24T21:00:00:Z","depth":0,"parameterNumber":3,"parameterNumberName":"V-component_of_WINDS"},"data":[0,0,0,0,0,0,0,0,0,0,0,0,0,0,0,0,0,0,0,0,0,0,0,0,0,0,0,0,0,0,0,0,0,0,0,0,0,0,0,0,0,0,0,0,0,0,0,0,0,0,0,0,0,0,0,0,0,0,-2.6963,-2.6962,0,-2.6913,-2.6912,-2.6912,-2.6839,-2.6838,-2.6836,-2.6835,-2.6783,-2.6783,-2.6783,0,0,0,0,0,0,0,0,0,0,0,0,0,-2.6994,-2.6994,-2.6963,-2.6962,-2.6961,-2.6913,-2.6912,-2.6912,-2.6839,-2.6838,-2.6836,-2.6835,-2.6783,-2.6783,-2.6783,0,0,0,0,0,0,0,0,0,0,0,0,0,-2.6966,-2.6994,-2.6963,-2.6919,-2.6915,-2.6913,-2.6912,-2.6912,-2.684,-2.6838,-2.6836,-2.6834,-2.6783,-2.6783,-2.6783,-2.6819,0,0,-2.6782,-2.6781,0,0,0,0,0,0,0,0,-2.6968,-2.6965,-2.6926,-2.6922,-2.6918,-2.688,-2.6904,-2.688,-2.684,-2.6868,-2.6835,-2.6833,-2.6817,-2.6814,-2.6808,-2.6816,-2.6814,-2.6782,-2.6781,-2.6781,-2.6781,0,0,0,0,0,0,0,-2.697,-2.6967,-2.6943,-2.6926,-2.6921,-2.6902,-2.6896,-2.6899,-2.6854,-2.6866,-2.686,-2.6855,-2.6814,-2.6809,-2.6807,-2.6813,-2.6782,-2.6781,-2.6781,-2.6781,-2.685,-2.6852,0,0,0,0,0,0,-2.6978,-2.6969,-2.6944,-2.6941,-2.6939,-2.6903,-2.6897,-2.6894,-2.6854,-2.6846,-2.6857,-2.6852,-2.681,-2.6807,-2.6805,-2.6846,-2.6781,-2.6781,-2.6781,-2.6848,-2.6851,-2.6853,0,0,0,0,0,0,-2.6979,-2.6977,-2.6946,-2.6954,-2.6948,-2.6905,-2.6903,-2.6894,-2.6889,-2.6847,-2.6838,-2.686,-2.6809,-2.6805,-2.6816,-2.6843,-2.6781,-2.6781,-2.6846,-2.6849,-2.6852,-2.6927,0,0,0,0,0,0,-2.698,-2.6978,-2.6991,-2.6955,-2.6948,-2.6959,-2.6904,-2.6895,-2.6889,-2.6882,-2.6848,-2.684,-2.6807,-2.6817,-2.6816,-2.6841,-2.678,-2.6843,-2.6847,-2.6851,-2.6922,-2.6933,-2.6942,0,0,0,0,0,-2.6982,-2.7013,-2.6992,-2.6989,-2.6964,-2.6961,-2.6957,-2.6919,-2.6891,-2.6904,-2.6878,-2.6841,-2.684,-2.6819,-2.6817,-2.6843,-2.6841,-2.6846,-2.685,-2.6918,-2.6931,-2.6941,0,0,0,0,0,0,-2.7053,-2.7008,-2.6983,-2.7004,-2.6987,-2.6949,-2.6964,-2.6933,-2.6923,-2.6917,-2.6869,-2.6862,-2.688,-2.6862,-2.6839,-2.6876,-2.6835,-2.684,-2.6887,-2.6899,-2.6908,-2.6913,-2.678,0,0,0,0,0,-2.7072,-2.7073,-2.7033,-2.7055,-2.7048,-2.7008,-2.7005,-2.6977,-2.6957,-2.6949,-2.6923,-2.6905,-2.6901,-2.6899,-2.6892,-2.6919,-2.6912,-2.6936,-2.6946,-2.6954,-2.6958,-2.6973,-2.6984,-2.6868,-2.6868,-2.6868,0,0,-2.7109,-2.7085,-2.7088,-2.7069,-2.7053,-2.7056,-2.7002,-2.7007,-2.7009,-2.695,-2.6959,-2.694,-2.6916,-2.6937,-2.6944,-2.6922,-2.6989,-2.6959,-2.6966,-2.6966,-2.6979,-2.699,-2.7,-2.6871,-2.687,-2.687,0,0,-2.7179,-2.7161,-2.7178,-2.7163,-2.7139,-2.7112,-2.7116,-2.7083,-2.7068,-2.7077,-2.7033,-2.7035,-2.7027,-2.7013,-2.7005,-2.7072,-2.7039,-2.7071,-2.7121,-2.7136,-2.7145,-2.7153,-2.7179,-2.7188,-2.7075,-2.7076,-2.7076,0,-2.7229,-2.7232,-2.719,-2.7199,-2.7192,-2.714,-2.7157,-2.7144,-2.7119,-2.7116,-2.7092,-2.7084,-2.7064,-2.7081,-2.7098,-2.7092,-2.7096,-2.7075,-2.7147,-2.7155,-2.7162,-2.7185,-2.7195,-2.708,-2.7079,-2.7079,-2.7078,0,-2.7295,-2.7298,-2.7314,-2.7293,-2.7288,-2.7301,-2.7262,-2.7262,-2.7234,-2.7211,-2.7221,-2.7196,-2.7184,-2.7186,-2.7159,-2.72,-2.7187,-2.7156,-2.7114,-2.7178,-2.7199,-2.7208,-2.7086,-2.7084,-2.7083,-2.7082,0,0,-2.7408,-2.7365,-2.7372,-2.7362,-2.7332,-2.7333,-2.7344,-2.7334,-2.7335,-2.732,-2.7329,-2.7325,-2.7297,-2.7287,-2.7258,-2.7271,-2.7328,-2.7239,-2.7237,-2.7257,-2.7373,-2.7398,-2.7409,-2.7306,-2.7307,-2.7308,-2.7376,0,-2.7473,-2.749,-2.7454,-2.7479,-2.7482,-2.7433,-2.7442,-2.7426,-2.7404,-2.7403,-2.7378,-2.7377,-2.7339,-2.7334,-2.7344,-2.7319,-2.7351,-2.7313,-2.7314,-2.7314,-2.7323,-2.742,-2.7445,-2.751,-2.7384,-2.7385,-2.7386,0,-2.7551,-2.7542,-2.7568,-2.7538,-2.7538,-2.7547,-2.7536,-2.7535,-2.7515,-2.7499,-2.749,-2.7456,-2.7465,-2.7425,-2.7437,-2.7413,-2.7411,-2.7398,-2.74,-2.7399,-2.7355,-2.7423,-2.7529,-2.754,-2.7399,-2.7398,-2.7397,0,-2.7633,-2.7626,-2.7642,-2.7634,-2.76,-2.7608,-2.7594,-2.7572,-2.7569,-2.7558,-2.7556,-2.7547,-2.7542,-2.7536,-2.7501,-2.7474,-2.7518,-2.7474,-2.7505,-2.7506,-2.7517,-2.7517,-2.7626,-2.7514,-2.7514,-2.7514,-2.7514,0,-2.7711,-2.7729,-2.7678,-2.7688,-2.7707,-2.7665,-2.7686,-2.7667,-2.7648,-2.7653,-2.761,-2.7616,-2.7569,-2.757,-2.7542,-2.7558,-2.7556,-2.7543,-2.7536,-2.7548,-2.755,-2.7546,-2.7541,-2.7516,-2.7516,-2.7515,-2.7515,0,-2.7805,-2.7772,-2.7786,-2.7752,-2.7744,-2.776,-2.7732,-2.774,-2.7715,-2.7723,-2.7722,-2.7684,-2.7683,-2.7648,-2.7639,-2.7621,-2.7648,-2.7632,-2.7655,-2.7651,-2.7684,-2.7682,-2.7796,-2.7809,-2.7688,-2.7689,-2.769,0,-2.7857,-2.787,-2.7839,-2.784,-2.7828,-2.7829,-2.7826,-2.7786,-2.7784,-2.7764,-2.7774,-2.777,-2.7765,-2.7766,-2.7737,-2.7731,-2.7715,-2.7755,-2.7714,-2.7726,-2.7717,-2.7718,-2.7719,-2.7764,-2.7766,-2.7767,-2.7768,0,-2.7954,-2.7937,-2.7934,-2.7926,-2.7923,-2.7914,-2.7903,-2.7906,-2.7862,-2.7863,-2.7862,-2.7858,-2.785,-2.7847,-2.7835,-2.7821,-2.7788,-2.7782,-2.7789,-2.7801,-2.7815,-2.781,-2.7681,-2.7779,-2.7778,-2.7777,-2.7777,-2.7776,-2.8029,-2.8039,-2.8019,-2.8018,-2.8005,-2.7996,-2.8002,-2.798,-2.7978,-2.7969,-2.7945,-2.7949,-2.793,-2.7912,-2.79,-2.7903,-2.7882,-2.7892,-2.7895,-2.7898,-2.7906,-2.7814,-2.79,-2.79,-2.79,-2.7899,-2.7899,0,-2.8124,-2.8109,-2.8108,-2.8095,-2.8094,-2.8063,-2.8049,-2.8051,-2.8055,-2.804,-2.8036,-2.8036,-2.8033,-2.8006,-2.8,-2.8007,-2.7992,-2.8007,-2.8006,-2.8004,-2.7923,-2.7918,-2.8019,-2.8019,-2.8019,-2.8019,-2.8019,-2.8019,-2.8174,-2.819,-2.8171,-2.8181,-2.8165,-2.8169,-2.8164,-2.8156,-2.8144,-2.8146,-2.8144,-2.8126,-2.8106,-2.8099,-2.8096,-2.8088,-2.8088,-2.8109,-2.8096,-2.8021,-2.8009,-2.7998,-2.7994,-2.8109,-2.8109,-2.8176,-2.8177,-2.8177]}]]